Location: El Álamo
(40.2307°N, 3.9945°W)
Time: 04:31:02
(UTC+00:00)

Cosmos 2369 Rocket - Pass Details

Date: 19 May 2025
Orbit: 826 x 852 km, 71.0° (Epoch: 23 June)

Event Time Altitude Azimuth Distance (km) Brightness Sun altitude
Rises 20:05:41 0° 322° (NW) 3,425 7.0 -6.9°
Reaches altitude 10° 20:08:39 10° 308° (NW) 2,482 6.4 -7.3°
Maximum altitude 20:12:54 22° 260° (W) 1,769 4.5 -8.0°
Drops below altitude 10° 20:17:08 10° 211° (SSW) 2,459 4.6 -8.7°
Sets 20:20:04 0° 196° (SSW) 3,385 5.1 -9.1°
